Weather History for Sheboygan, WI

Change the Weather History Date:

Monday, November 19, 2012

  Actual Average Record
Temperature  
Mean Temperature 40 °F -  
Max Temperature 50 °F 44 °F 63 °F (1953)
Min Temperature 30 °F 31 °F 16 °F (1951)
Degree Days  
Heating Degree Days 25    
Moisture  
Dew Point 38 °F    
Average Humidity 95    
Maximum Humidity 100    
Minimum Humidity 68    
Precipitation  
Precipitation 0.04 in - - ()
Sea Level Pressure  
Sea Level Pressure 30.23 in    
Wind  
Wind Speed 2 mph (South)    
Max Wind Speed 13 mph    
Max Gust Speed -    
Visibility 2 miles    
Events Fog , Rain    
Averages and records for this station are not official NWS values.
T = Trace of Precipitation, MM = Missing Value Source: NWS Daily Summary

Daily Weather History Graph

Daily Weather History Graph

Search for Another Location

Airport:

Trip Planner

Search our weather history database for the weather conditions in past years. The results will help you decide how hot, cold, wet, or windy it might be!

Date:

Astronomy

Nov. 19, 2012 Rise Set
Actual Time 6:51 AM CST 4:21 PM CST
Civil Twilight 6:20 AM CST 4:53 PM CST
Nautical Twilight 5:45 AM CST 5:28 PM CST
Astronomical Twilight 5:10 AM CST 6:02 PM CST
Moon 11:49 AM CST (11/19) 10:54 PM CST (11/19)
Length of Visible Light 10h 33m
Length of Day
9h 30m
Waxing Crescent, 41% of the Moon is Illuminated
Nov 19
Waxing Crescent
Nov 20
First Quarter
Nov 28
Full
Dec 6
Last Quarter
Dec 13
New

Hourly Weather History & Observations

Time (CST) Temp. Windchill Dew Point Humidity Pressure Visibility Wind Dir Wind Speed Gust Speed Precip Events Conditions
12:01 AM 37.4 °F - 37.4 °F 100% 30.30 in 0.2 mi Calm Calm - N/A Fog Fog
12:09 AM 35.6 °F - 35.6 °F 100% 30.30 in 0.2 mi Calm Calm - N/A Fog Fog
12:53 AM 36.0 °F - 36.0 °F 100% 30.31 in 0.2 mi Calm Calm - N/A Fog Fog
1:02 AM 35.6 °F - 35.6 °F 100% 30.29 in 0.5 mi Calm Calm - N/A Fog Fog
1:13 AM 37.4 °F 34.9 °F 37.4 °F 100% 30.29 in 1.8 mi SW 3.5 mph - N/A   Clear
1:22 AM 33.8 °F 30.8 °F 33.8 °F 100% 30.29 in 0.5 mi SSW 3.5 mph - N/A Fog Fog
1:31 AM 33.8 °F 30.8 °F 33.8 °F 100% 30.29 in 0.2 mi SSW 3.5 mph - N/A Fog Fog
1:53 AM 34.0 °F 31.0 °F 34.0 °F 100% 30.31 in 0.2 mi South 3.5 mph - N/A Fog Fog
2:14 AM 32.0 °F 26.4 °F 32.0 °F 100% 30.29 in 0.5 mi South 5.8 mph - N/A Fog Fog
2:21 AM 33.8 °F 29.6 °F 33.8 °F 100% 30.28 in 0.2 mi SSW 4.6 mph - N/A Fog Fog
2:53 AM 35.1 °F - 35.1 °F 100% 30.30 in 0.5 mi Calm Calm - N/A Fog Fog
3:00 AM 37.4 °F - 35.6 °F 93% 30.27 in 1.0 mi Calm Calm - N/A   Clear
3:09 AM 37.4 °F - 37.4 °F 100% 30.27 in 0.5 mi Calm Calm - N/A Fog Fog
3:14 AM 37.4 °F - 37.4 °F 100% 30.27 in 0.2 mi Calm Calm - N/A Fog Fog
3:21 AM 32.0 °F - 32.0 °F 100% 30.27 in 0.2 mi Calm Calm - N/A Fog Fog
3:53 AM 30.9 °F - 30.9 °F 100% 30.29 in 0.2 mi Calm Calm - N/A Fog Light Freezing Fog
4:03 AM 33.8 °F - 33.8 °F 100% 30.26 in 0.8 mi Calm Calm - N/A   Mist
4:14 AM 32.0 °F - 32.0 °F 100% 30.27 in 1.0 mi Calm Calm - N/A   Clear
4:53 AM 36.0 °F - 35.1 °F 97% 30.28 in 0.8 mi Calm Calm - N/A   Clear
5:01 AM 35.6 °F 32.8 °F 35.6 °F 100% 30.26 in 1.0 mi SSW 3.5 mph - N/A   Clear
5:10 AM 32.0 °F - 32.0 °F 100% 30.26 in 0.8 mi Calm Calm - N/A   Clear
5:20 AM 35.6 °F - 33.8 °F 93% 30.27 in 1.2 mi Calm Calm - N/A   Clear
5:53 AM 30.9 °F - 30.9 °F 100% 30.28 in 0.8 mi Calm Calm - N/A   Clear
6:07 AM 30.2 °F - 30.2 °F 100% 30.25 in 0.2 mi Calm Calm - N/A Fog Light Freezing Fog
6:12 AM 32.0 °F - 32.0 °F 100% 30.25 in 1.0 mi Calm Calm - N/A   Clear
6:53 AM 33.1 °F - 33.1 °F 100% 30.27 in 1.5 mi Calm Calm - N/A   Clear
7:08 AM 33.8 °F - 33.8 °F 100% 30.25 in 2.0 mi Calm Calm - N/A   Clear
7:53 AM 33.1 °F - 33.1 °F 100% 30.28 in 1.5 mi Calm Calm - N/A   Partly Cloudy
8:32 AM 37.4 °F - 37.4 °F 100% 30.25 in 2.0 mi Calm Calm - N/A   Scattered Clouds
8:53 AM 39.0 °F - 39.0 °F 100% 30.26 in 4.0 mi Calm Calm - N/A   Scattered Clouds
9:53 AM 44.1 °F 42.5 °F 41.0 °F 89% 30.26 in 4.0 mi South 3.5 mph - N/A   Clear
10:53 AM 48.0 °F - 42.1 °F 80% 30.25 in 6.0 mi South 8.1 mph - N/A   Haze
11:53 AM 50.0 °F - 39.9 °F 68% 30.21 in 8.0 mi SSW 6.9 mph - N/A   Clear
12:53 PM 50.0 °F - 41.0 °F 71% 30.19 in 8.0 mi Variable 4.6 mph - N/A   Scattered Clouds
1:53 PM 50.0 °F - 41.0 °F 71% 30.17 in 8.0 mi SE 8.1 mph - N/A   Partly Cloudy
2:53 PM 48.9 °F - 39.9 °F 71% 30.17 in 7.0 mi SSE 8.1 mph - N/A   Mostly Cloudy
3:53 PM 48.0 °F - 42.1 °F 80% 30.16 in 6.0 mi South 12.7 mph - 0.00 in   Haze
4:53 PM 46.9 °F - 43.0 °F 86% 30.14 in 6.0 mi South 6.9 mph - N/A   Overcast
5:53 PM 46.9 °F - 43.0 °F 86% 30.16 in 7.0 mi South 5.8 mph - 0.00 in   Overcast
6:53 PM 46.9 °F - 43.0 °F 86% 30.15 in 6.0 mi South 5.8 mph - N/A   Overcast
7:53 PM 46.9 °F - 44.1 °F 90% 30.15 in 5.0 mi South 6.9 mph - 0.00 in   Overcast
9:25 PM 46.4 °F 45.2 °F 44.6 °F 93% 30.12 in 2.5 mi ESE 3.5 mph - 0.01 in Rain Light Rain
9:53 PM 46.0 °F 44.8 °F 45.0 °F 96% 30.12 in 1.8 mi East 3.5 mph - 0.02 in Rain Light Rain
10:09 PM 46.4 °F - 44.6 °F 93% 30.10 in 2.0 mi Calm Calm - 0.00 in   Overcast
10:21 PM 46.4 °F - 46.4 °F 100% 30.10 in 1.8 mi Calm Calm - 0.00 in   Overcast
10:53 PM 46.0 °F 43.1 °F 46.0 °F 100% 30.10 in 1.5 mi South 5.8 mph - 0.01 in Rain Light Rain
11:30 PM 46.4 °F 45.2 °F 44.6 °F 93% 30.08 in 1.5 mi SSW 3.5 mph - 0.01 in   Overcast
11:53 PM 45.0 °F - 45.0 °F 100% 30.09 in 1.5 mi Calm Calm - 0.01 in   Overcast